CES116 NZAA-NZQN

Flight info

Callsign CES116
Flight time N/A
Altitude 36000
Route KAPAI Y320 DOVOT
Aircraft A320/M-SDE2E3FGHIRW/LB1

Departure

Time N/A
Airport Auckland International Airport (NZAA)

Arrival

Time 2026-05-04 16:08
Airport Queenstown Airport (NZQN)
Time Latitude Longitude Altitude Speed Heading
2026-05-04 15:37 -42.98287 170.12103 36532 ft 429 kts 216°
2026-05-04 15:37 -43.03131 170.07345 36535 ft 429 kts 216°
2026-05-04 15:38 -43.07977 170.02580 36534 ft 429 kts 216°
2026-05-04 15:38 -43.12816 169.97828 36528 ft 428 kts 216°
2026-05-04 15:39 -43.17653 169.93061 36528 ft 428 kts 216°
2026-05-04 15:40 -43.24898 169.85893 36531 ft 428 kts 216°
2026-05-04 15:40 -43.29723 169.81106 36529 ft 428 kts 216°
2026-05-04 15:41 -43.34547 169.76313 36520 ft 428 kts 216°
2026-05-04 15:41 -43.39369 169.71514 36523 ft 428 kts 216°
2026-05-04 15:42 -43.44189 169.66710 36522 ft 428 kts 216°
2026-05-04 15:42 -43.49006 169.61895 36522 ft 428 kts 217°
2026-05-04 15:43 -43.53827 169.57074 36526 ft 428 kts 216°
2026-05-04 15:43 -43.58611 169.52276 36528 ft 428 kts 217°
2026-05-04 15:44 -43.63421 169.47432 36530 ft 428 kts 217°
2026-05-04 15:44 -43.68236 169.42588 36533 ft 428 kts 217°
2026-05-04 15:45 -43.73055 169.37728 36529 ft 429 kts 217°
2026-05-04 15:45 -43.77869 169.32852 36537 ft 429 kts 217°
2026-05-04 15:46 -43.82677 169.27969 36541 ft 429 kts 217°
2026-05-04 15:46 -43.87494 169.23084 36540 ft 429 kts 217°
2026-05-04 15:47 -43.92303 169.18190 36539 ft 429 kts 217°
2026-05-04 15:47 -43.97102 169.13291 36544 ft 428 kts 217°
2026-05-04 15:48 -44.01899 169.08386 36519 ft 429 kts 217°
2026-05-04 15:48 -44.04299 169.05930 36109 ft 429 kts 217°
2026-05-04 15:48 -44.09203 169.00910 33744 ft 442 kts 217°
2026-05-04 15:49 -44.11658 168.98389 33243 ft 436 kts 218°
2026-05-04 15:49 -44.14080 168.95895 32709 ft 431 kts 218°
2026-05-04 15:49 -44.16478 168.93425 32128 ft 427 kts 218°
2026-05-04 15:49 -44.18830 168.91000 31596 ft 424 kts 218°
2026-05-04 15:50 -44.21221 168.88534 31057 ft 421 kts 218°
2026-05-04 15:50 -44.23568 168.86109 30508 ft 418 kts 219°
2026-05-04 15:50 -44.25867 168.83731 29946 ft 415 kts 219°
2026-05-04 15:50 -44.28171 168.81348 29443 ft 410 kts 219°
2026-05-04 15:51 -44.30448 168.78986 28926 ft 406 kts 219°
2026-05-04 15:51 -44.32706 168.76644 28438 ft 402 kts 219°
2026-05-04 15:51 -44.34936 168.74330 27967 ft 397 kts 219°
2026-05-04 15:51 -44.37140 168.72036 27489 ft 393 kts 219°
2026-05-04 15:52 -44.39327 168.69757 27026 ft 390 kts 219°
2026-05-04 15:52 -44.41492 168.67499 26566 ft 387 kts 219°
2026-05-04 15:52 -44.43636 168.65265 26105 ft 383 kts 220°
2026-05-04 15:52 -44.45764 168.63046 25635 ft 380 kts 219°
2026-05-04 15:53 -44.47873 168.60841 25173 ft 378 kts 219°
2026-05-04 15:53 -44.49975 168.58640 24703 ft 377 kts 220°
2026-05-04 15:53 -44.52069 168.56446 24222 ft 376 kts 219°
2026-05-04 15:53 -44.54164 168.54250 23690 ft 375 kts 220°
2026-05-04 15:54 -44.56247 168.52063 23204 ft 373 kts 220°
2026-05-04 15:54 -44.58317 168.49886 22718 ft 371 kts 219°
2026-05-04 15:54 -44.60382 168.47714 22235 ft 370 kts 220°
2026-05-04 15:54 -44.62591 168.45848 21761 ft 373 kts 203°
2026-05-04 15:55 -44.65076 168.45077 21532 ft 368 kts 184°
2026-05-04 15:55 -44.67606 168.45437 21145 ft 367 kts 164°
2026-05-04 15:55 -44.69913 168.46947 20617 ft 368 kts 144°
2026-05-04 15:55 -44.71926 168.49145 20282 ft 364 kts 141°
2026-05-04 15:56 -44.73910 168.51345 19895 ft 363 kts 141°
2026-05-04 15:56 -44.75961 168.53394 19484 ft 362 kts 152°
2026-05-04 15:56 -44.78293 168.54673 19102 ft 359 kts 168°
2026-05-04 15:56 -44.80765 168.55047 18703 ft 355 kts 184°
2026-05-04 15:57 -44.83184 168.54520 18304 ft 349 kts 199°
2026-05-04 15:57 -44.85478 168.53449 17890 ft 346 kts 201°
2026-05-04 15:57 -44.87756 168.52367 17493 ft 344 kts 202°
2026-05-04 15:57 -44.90019 168.51297 17101 ft 343 kts 201°
2026-05-04 15:58 -44.91513 168.50587 16974 ft 340 kts 202°
2026-05-04 15:58 -44.93713 168.49424 16599 ft 335 kts 211°
2026-05-04 15:58 -44.96174 168.46924 16115 ft 325 kts 231°
2026-05-04 15:58 -44.97536 168.44437 15784 ft 317 kts 245°
2026-05-04 15:59 -44.98529 168.41687 15464 ft 313 kts 249°
2026-05-04 15:59 -44.99489 168.38941 15157 ft 311 kts 249°
2026-05-04 15:59 -45.00443 168.36218 14850 ft 308 kts 249°
2026-05-04 15:59 -45.01390 168.33515 14525 ft 306 kts 249°
2026-05-04 16:00 -45.02029 168.31695 14325 ft 305 kts 249°
2026-05-04 16:00 -45.03178 168.29160 14009 ft 310 kts 234°
2026-05-04 16:00 -45.04774 168.27094 13713 ft 314 kts 220°
2026-05-04 16:00 -45.06682 168.25667 13100 ft 318 kts 204°
2026-05-04 16:01 -45.08860 168.24997 12475 ft 323 kts 187°
2026-05-04 16:01 -45.11149 168.25185 11700 ft 331 kts 171°
2026-05-04 16:01 -45.13312 168.26281 10847 ft 340 kts 151°
2026-05-04 16:01 -45.15080 168.28453 10343 ft 331 kts 125°
2026-05-04 16:02 -45.16135 168.31199 10165 ft 304 kts 102°
2026-05-04 16:02 -45.16481 168.34025 9854 ft 280 kts 84°
2026-05-04 16:02 -45.15390 168.39062 8786 ft 264 kts 56°
2026-05-04 16:03 -45.14541 168.41313 8206 ft 262 kts 56°
2026-05-04 16:03 -45.13686 168.43585 7630 ft 261 kts 57°
2026-05-04 16:03 -45.12844 168.45835 7099 ft 255 kts 58°
2026-05-04 16:03 -45.12020 168.48038 6281 ft 251 kts 59°
2026-05-04 16:04 -45.11207 168.50211 5457 ft 248 kts 59°
2026-05-04 16:04 -45.09634 168.54394 4286 ft 229 kts 60°
2026-05-04 16:04 -45.08912 168.56311 4114 ft 212 kts 60°
2026-05-04 16:05 -45.08246 168.58079 3988 ft 194 kts 60°
2026-05-04 16:05 -45.07648 168.59668 3825 ft 173 kts 60°
2026-05-04 16:05 -45.06636 168.62364 3417 ft 142 kts 58°
2026-05-04 16:06 -45.06181 168.63569 3109 ft 137 kts 58°
2026-05-04 16:06 -45.05006 168.66680 2482 ft 135 kts 60°
2026-05-04 16:07 -45.04241 168.68128 2197 ft 139 kts 41°
2026-05-04 16:07 -45.02457 168.71261 1539 ft 137 kts 68°
2026-05-04 16:08 -45.02177 168.72533 1372 ft 135 kts 70°
2026-05-04 16:08 -45.01748 168.75179 1207 ft 33 kts 77°
2026-05-04 16:09 -45.01661 168.75743 1205 ft 17 kts 84°
2026-05-04 16:09 -45.01633 168.75821 1201 ft 0 kts 281°
2026-05-04 16:10 -45.01671 168.75664 1206 ft 20 kts 258°
2026-05-04 16:11 -45.01803 168.74826 1167 ft 31 kts 258°
2026-05-04 16:11 -45.01847 168.74544 1167 ft 29 kts 258°
2026-05-04 16:12 -45.02036 168.74061 1164 ft 13 kts 202°
2026-05-04 16:12 -45.02126 168.74011 1164 ft 0 kts 206°